Regional Weather Roundup
Issued by NWS State College, PA

Home | Current Version | Previous Version | Text Only | Print | Product List | Glossary On
Versions: 1 2 3 4 5 6 7 8 9 10 11 12 13 14 15 16 17 18 19 20 21 22 23 24 25 26 27 28 29 30 31 32 33 34 35 36 37 38 39 40 41 42 43 44 45 46 47 48 49 50
000
ASUS41 KCTP 040810
RWRCTP

REGIONAL WEATHER ROUNDUP
NATIONAL WEATHER SERVICE STATE COLLEGE PA
400 AM EDT SAT JUL 04 2015

Note: "fair" indicates few or no clouds below 12,000 feet with no
significant weather and/or obstructions to visibility.

* = STATION THAT DOES NOT REPORT PRECIPITATION /E.G. RAIN...SNOW...ETC/
    THUNDER OR FOG.

PAZ002>004-007>009-013>016-020>023-029>032-040900-
WESTERN PENNSYLVANIA

CITY           SKY/WX    TMP DP  RH WIND       PRES   REMARKS
ERIE           PTCLDY    58  52  80 S3        29.89S
MEADVILLE      CLOUDY    63  56  78 CALM      29.90S
FRANKLIN*      CLOUDY    63  61  94 N3        29.91S VSB 1
NEW CASTLE     PTSUNNY   66  66 100 CALM      29.89S
BEAVER COUNTY  NOT AVBL
BUTLER*        CLOUDY    64  63  94 E5        29.89S
PITTSBURGH INT CLOUDY    67  64  90 N3        29.87S FOG
PITTSBURGH     LGT RAIN  64  61  90 SE3       29.86S FOG
INDIANA*       CLOUDY    64  64 100 CALM      29.92S FOG
LATROBE        NOT AVBL
WASHINGTON CO* NOT AVBL
$$

PAZ004>006-010>012-017>019-024>028-033>037-041-042-045-046-049>053-040900-
CENTRAL PENNSYLVANIA

CITY           SKY/WX    TMP DP  RH WIND       PRES   REMARKS
BRADFORD       CLOUDY    61  60  97 SE3       29.93F FOG
DUBOIS         LGT RAIN  65  62  90 E7        29.90F FOG
CLEARFIELD     LGT RAIN  64  62  93 E3        29.91S FOG
JOHNSTOWN      CLOUDY    62  60  93 S5        29.91S
ALTOONA        LGT RAIN  64  61  90 S8        29.91F
STATE COLLEGE  LGT RAIN  64  63  98 CALM      29.92S
WILLIAMSPORT   RAIN      66  63  90 E5        29.91F FOG
SELINSGROVE    LGT RAIN  67  65  93 CALM      29.93S FOG
FT INDIANTOWN  LGT RAIN  63  62  95 N5        29.94F
CAPITAL CITY   HVY RAIN  67  64  90 CALM      29.93S FOG
HARRISBURG     CLOUDY    67  62  84 SE5       29.92S
YORK           LGT RAIN  66  63  90 NW5       29.92F FOG
$$

PAZ038>040-043-044-047-048-054-055-060>062-067>071-040900-
EASTERN PENNSYLVANIA

CITY           SKY/WX    TMP DP  RH WIND       PRES   REMARKS
SCRANTON       CLOUDY    69  60  73 E3        29.95S
MOUNT POCONO   NOT AVBL
ALLENTOWN      CLOUDY    71  61  70 E3        29.94F
QUAKERTOWN*    CLOUDY    68  63  83 CALM      29.96S
READING        LGT RAIN  67  62  84 CALM      29.94R
LANCASTER      CLOUDY    65  62  90 E3        29.93F
COATESVILLE    CLOUDY    66  66 100 CALM      29.95F FOG
POTTSTOWN      CLOUDY    68  64  87 CALM      29.95F
BLUE BELL      CLOUDY    68  64  88 CALM      29.93F
DOYLESTOWN     CLOUDY    66  63  90 CALM      29.94F
WILLOW GROVE   NOT AVBL
NORTH PHILA    CLOUDY    70  63  78 E5        29.96S
PHILADELPHIA   CLOUDY    70  65  84 E3        29.94S
$$



USA.gov is the U.S. government's official web portal to all federal, state and local government web resources and services.